Flag for Italy Weather past 2 weeks in Bologna, Italy

Now
37 °F

Clear.


Feels Like: 35 °F
Forecast: 40 / 49 °F
Wind: 3 mph from East

Location: Bologna / Borgo Panigale

Current Time: Mar 3, 2015 at 4:32:46 AM

Latest Report: Mar 3, 2015 at 3:50 AM


Visibility: 10 mi

Pressure: 30.01 "Hg

Humidity: 93%

Dew point: 36 °F

Location of BolognaLocation

Historic Weather in Bologna — Graph

°F

Bologna temperature yesterday

Maximum temperature yesterday: 57 °F (at 3:50 PM)
Minimum temperature yesterday: 43 °F (at 3:20 AM)
Average temperature yesterday: 49 °F

Past Weeks' High & Low Weather Summary

 TemperatureHumidityPressure
High57 °F (Feb 21, 11:50 AM)100% (Feb 16, 2:20 AM)30.63 "Hg (Feb 16, 2:20 AM)
Low32 °F (Feb 18, 6:20 AM)35% (Feb 19, 4:20 PM)29.47 "Hg (Feb 22, 3:20 AM)
Average45 °F78%30.00 "Hg
* Reported Feb 16 2:20 AM — Mar 3 2:50 AM, Bologna, Weather by CustomWeather, © 2015

Note: Actual official high and low records may vary slightly from our data, if they occured in-between our weather recording intervals... More about our weather records

Advertising

Bologna weather history for previous 24 hours

 ConditionsComfort  
Time TempWeatherWind HumidityBarometerVisibility
2:50 AM
Tue, Mar 3
37 °FFog.2 mph93%30.01 "Hg2 mi
2:20 AM37 °FFog.3 mph87%30.01 "Hg2 mi
1:50 AM39 °FClear.3 mph87%29.98 "Hg10 mi
1:20 AM41 °FClear.2 mph87%29.98 "Hg10 mi
12:50 AM43 °FClear.7 mph87%29.98 "Hg10 mi
12:20 AM43 °FClear.2 mph81%29.95 "Hg10 mi
11:50 PM
Mon, Mar 2
46 °FClear.2 mph71%29.95 "Hg10 mi
11:20 PM52 °FClear.8 mph58%29.92 "Hg10 mi
10:50 PM52 °FClear.8 mph62%29.92 "Hg10 mi
10:20 PM50 °FClear.7 mph71%29.92 "Hg6 mi
9:50 PM50 °FClear.7 mph71%29.89 "Hg5 mi
9:20 PM50 °FClear.7 mph76%29.89 "Hg4 mi
8:50 PM50 °FClear.9 mph76%29.89 "Hg4 mi
8:20 PM50 °FClear.10 mph76%29.86 "Hg4 mi
7:50 PM50 °FFog.9 mph82%29.89 "Hg3 mi
7:20 PM50 °FFog.8 mph82%29.86 "Hg3 mi
6:50 PM50 °FClear.7 mph76%29.86 "Hg4 mi
6:20 PM52 °FFog.8 mph77%29.83 "Hg3 mi
5:50 PM52 °FClear.8 mph77%29.83 "Hg4 mi
5:20 PM54 °FClear.7 mph72%29.80 "Hg4 mi
4:50 PM55 °FClear.9 mph67%29.80 "Hg4 mi
4:20 PM55 °FClear.7 mph67%29.80 "Hg4 mi
3:50 PM57 °FClear.7 mph67%29.77 "Hg4 mi
3:20 PM55 °FClear.6 mph72%29.77 "Hg4 mi
2:50 PM55 °FClear.3 mph72%29.77 "Hg4 mi
2:20 PM55 °FFog.3 mph72%29.80 "Hg3 mi
1:50 PM54 °FFog.5 mph77%29.83 "Hg3 mi
1:20 PM54 °FFog.7 mph77%29.83 "Hg3 mi
12:50 PM54 °FFog.5 mph77%29.86 "Hg3 mi
12:20 PM54 °FFog.7 mph77%29.86 "Hg3 mi
11:50 AM54 °FFog.8 mph77%29.86 "Hg2 mi
11:20 AM52 °FFog.8 mph82%29.86 "Hg2 mi
10:50 AM50 °FScattered clouds.8 mph82%29.86 "Hg4 mi
10:20 AM50 °FPassing clouds.8 mph82%29.86 "Hg4 mi
9:50 AM46 °FFog.6 mph87%29.83 "Hg3 mi
9:20 AM46 °FPassing clouds.7 mph82%29.83 "Hg4 mi
8:50 AM46 °FPassing clouds.7 mph82%29.83 "Hg4 mi
8:20 AM45 °FScattered clouds.6 mph87%29.86 "Hg4 mi
7:50 AM45 °FPartly sunny.6 mph81%29.86 "HgN/A
7:20 AM45 °FPartly sunny.5 mph81%29.86 "HgN/A
6:50 AM45 °FPassing clouds.3 mph81%29.86 "HgN/A
6:20 AM45 °FPassing clouds.3 mph81%29.89 "HgN/A
5:50 AM45 °FPassing clouds.2 mph81%29.89 "HgN/A
5:20 AM45 °FPassing clouds.2 mph87%29.89 "HgN/A
4:50 AM45 °FPassing clouds.2 mph81%29.92 "HgN/A
4:20 AM45 °FPassing clouds.3 mph81%29.92 "HgN/A
Weather by CustomWeather, © 2015

See weather overviewHow to use our weather pages